Simultaneous Nadir Overpasses (SNOs) Predictions

Prediction of SNOs between GOES-15 and TERRA Satellite Orbit:

Table of predicted SNOs for the next 14.0 days since TLE Epoch: 10/22/2022
Index Date Time (GOES-15) GOES-15 Lat,Lon TERRA Lat,Lon Distance(km) Time Diff (sec)
1 10/22/2022 06:52:03 0.28,-128.41 0.15,-129.16 83.58 80
2 10/24/2022 06:33:45 0.28,-128.42 0.92,-125.37 346.62 80
3 10/24/2022 18:54:06 -0.28,-128.42 0.10,-130.32 215.93 80
4 10/26/2022 18:41:08 -0.28,-128.42 -0.68,-126.54 213.76 80
5 10/27/2022 07:01:39 0.27,-128.43 -0.40,-131.52 351.77 80
6 10/29/2022 06:43:21 0.27,-128.41 0.40,-127.74 76.52 80
7 10/29/2022 19:03:43 -0.26,-128.39 0.62,-132.69 487.77 80
8 10/31/2022 18:48:04 -0.26,-128.37 -0.13,-128.90 59.91 80
9 11/02/2022 18:35:06 -0.25,-128.35 -0.95,-125.12 367.86 80
10 11/03/2022 06:55:37 0.25,-128.37 -0.11,-130.10 196.97 80
